Weather History for New Philadelphia, OH

Change the Weather History Date:

Tuesday, May 20, 2014

  Actual Average Record
Temperature  
Mean Temperature 63 °F 61 °F  
Max Temperature 76 °F 73 °F 91 °F (1996)
Min Temperature 49 °F 49 °F 32 °F (1981)
Degree Days  
Heating Degree Days 2 5  
Month to date heating degree days 140 148  
Since 1 July heating degree days 6144 5563  
Cooling Degree Days 0 1  
Month to date cooling degree days 38 11  
Year to date cooling degree days 39 18  
Growing Degree Days 12 (Base 50)    
Moisture  
Dew Point 51 °F    
Average Humidity 63    
Maximum Humidity 90    
Minimum Humidity 35    
Precipitation  
Precipitation T in 0.15 in 0.74 in (2005)
Month to date precipitation 2.88 2.53  
Year to date precipitation 14.67 13.96  
Sea Level Pressure  
Sea Level Pressure 30.08 in    
Wind  
Wind Speed 5 mph (SSE)    
Max Wind Speed 15 mph    
Max Gust Speed 23 mph    
Visibility 10 miles    
Events      
T = Trace of Precipitation, MM = Missing Value Source: NWS Daily Summary

Daily Weather History Graph

Daily Weather History Graph

Search for Another Location

Airport:

Trip Planner

Search our weather history database for the weather conditions in past years. The results will help you decide how hot, cold, wet, or windy it might be!

Date:

Astronomy

May. 20, 2014 Rise Set
Actual Time 6:04 AM EDT 8:40 PM EDT
Civil Twilight 5:33 AM EDT 9:11 PM EDT
Nautical Twilight 4:54 AM EDT 9:50 PM EDT
Astronomical Twilight 4:10 AM EDT 10:35 PM EDT
Moon 1:08 AM EDT (5/20) 12:10 PM EDT (5/20)
Length of Visible Light 15h 38m
Length of Day
14h 35m
Waning Gibbous, 60% of the Moon is Illuminated
May 20
Waning Gibbous
May 21
Last Quarter
May 28
New
Jun 5
First Quarter
Jun 13
Full

Hourly Weather History & Observations

Time (EDT) Temp. Dew Point Humidity Pressure Visibility Wind Dir Wind Speed Gust Speed Precip Events Conditions
12:53 AM 50.0 °F 45.0 °F 83% 30.20 in 10.0 mi Calm Calm - N/A   Clear
2:53 AM 50.0 °F 45.0 °F 83% 30.22 in 10.0 mi Calm Calm - N/A   Clear
3:53 AM 50.0 °F 46.9 °F 89% 30.25 in 10.0 mi Calm Calm - N/A   Mostly Cloudy
5:53 AM 52.0 °F 46.9 °F 83% 30.20 in 10.0 mi Calm Calm - N/A   Overcast
6:53 AM 51.1 °F 48.0 °F 89% 30.19 in 10.0 mi SE 5.8 mph - N/A   Overcast
8:53 AM 57.9 °F 48.0 °F 70% 30.17 in 10.0 mi SE 4.6 mph - N/A   Mostly Cloudy
9:53 AM 63.0 °F 46.0 °F 54% 30.15 in 10.0 mi Variable 4.6 mph - N/A   Overcast
10:53 AM 66.0 °F 41.0 °F 40% 30.12 in 10.0 mi SSE 10.4 mph - N/A   Overcast
11:53 AM 70.0 °F 42.1 °F 36% 30.10 in 10.0 mi South 8.1 mph - N/A   Mostly Cloudy
12:53 PM 71.1 °F 43.0 °F 36% 30.07 in 10.0 mi South 12.7 mph - N/A   Mostly Cloudy
1:53 PM 72.0 °F 46.9 °F 41% 30.04 in 10.0 mi South 11.5 mph - N/A   Mostly Cloudy
2:53 PM 75.9 °F 51.1 °F 42% 30.01 in 10.0 mi South 11.5 mph - N/A   Partly Cloudy
4:53 PM 73.9 °F 55.0 °F 52% 29.99 in 10.0 mi South 8.1 mph - N/A   Overcast
5:53 PM 73.0 °F 57.0 °F 57% 29.99 in 10.0 mi Variable 6.9 mph - N/A   Overcast
6:53 PM 73.0 °F 59.0 °F 61% 29.99 in 10.0 mi SSW 4.6 mph - N/A   Overcast
7:53 PM 73.0 °F 57.9 °F 59% 29.99 in 10.0 mi Calm Calm - N/A   Mostly Cloudy
8:53 PM 66.0 °F 59.0 °F 78% 29.99 in 10.0 mi SSE 3.5 mph - N/A   Clear
9:53 PM 63.0 °F 59.0 °F 87% 29.98 in 10.0 mi SE 3.5 mph - N/A   Clear
10:53 PM 63.0 °F 59.0 °F 87% 29.98 in 10.0 mi Calm Calm - N/A   Clear
11:53 PM 61.0 °F 57.9 °F 90% 29.97 in 10.0 mi Calm Calm - N/A   Clear